Wind_Speed
18 17 17 17 17 17 17 17 16 15 15 15 15 15 15 16 17 18 19 20 20 19 18 17 15 14 14 13 12 11 11 11 10 10 9 9 8 7 6 4 4 5 4
14 15 14 14 13 13 13 13 13 13 13 13 13 13 13 14 15 16 17 18 18 18 18 17 15 13 13 12 12 10 9 9 9 9 8 8 8 7 6 5 3 2 1
11 11 11 11 11 11 12 12 12 12 11 12 12 12 12 12 12 13 14 15 16 16 16 16 15 13 11 10 10 9 8 7 7 7 7 7 7 7 6 5 3 1 1
8 7 8 9 9 10 12 12 12 11 11 10 9 9 9 10 10 10 11 12 14 14 14 14 14 13 11 9 8 7 6 6 7 7 6 7 7 7 7 6 4 3 3
6 5 6 8 8 9 9 10 10 9 9 8 7 7 8 8 8 8 9 10 12 13 13 13 12 12 10 8 6 6 5 5 6 6 6 6 6 6 6 6 5 4 3
3 3 4 6 6 6 6 6 6 6 6 6 6 6 7 7 8 8 8 9 11 12 13 13 12 11 10 8 6 4 4 4 5 6 6 5 5 5 5 4 4 4 4
2 2 2 2 2 2 2 2 3 4 5 5 5 6 6 7 7 8 8 9 10 12 13 14 13 12 10 8 6 5 4 4 5 6 6 5 4 4 5 5 5 5 5
5 5 4 3 3 4 3 3 2 2 2 3 4 4 6 7 8 9 9 10 11 12 13 15 15 14 11 8 6 5 5 6 6 7 7 5 4 4 6 7 7 7 7
7 7 7 7 7 7 6 6 5 3 3 2 3 5 6 7 9 9 10 10 11 12 13 15 16 16 13 10 8 6 6 7 8 9 9 7 6 5 6 8 9 9 9
9 9 8 8 9 9 8 7 7 6 6 6 6 8 10 11 10 10 10 9 11 12 13 15 16 16 15 13 11 9 8 9 10 10 10 9 8 8 8 9 10 11 11
11 11 10 9 10 10 10 9 9 9 10 10 11 12 13 13 12 10 9 9 9 12 14 15 15 16 16 15 13 12 11 11 12 12 12 12 11 11 11 12 13 13 12
12 12 12 11 11 12 12 12 12 13 14 14 15 15 14 13 11 11 10 9 9 11 13 15 16 15 16 15 15 15 15 14 14 14 14 14 14 14 14 14 14 14 13
13 14 13 13 14 14 15 15 15 15 15 15 15 14 13 11 10 9 9 9 9 11 13 16 17 17 17 17 16 16 16 17 17 16 16 15 16 16 17 17 16 15 14
15 16 15 15 16 17 17 17 17 16 15 15 14 13 13 12 11 10 10 10 10 11 14 16 18 19 19 19 19 18 18 18 19 19 19 18 18 17 18 18 17 16 15
18 18 18 18 19 20 20 21 20 20 19 17 15 14 14 14 13 13 12 12 12 13 15 18 20 21 22 22 22 20 19 19 20 21 22 22 21 19 18 19 19 18 17
20 21 22 23 24 25 25 25 25 24 23 21 20 18 17 16 15 15 14 15 15 16 18 19 21 22 23 24 24 24 22 20 20 22 23 24 24 21 20 20 20 19 19
23 24 25 27 29 30 30 30 30 29 27 26 24 23 21 19 18 17 17 18 19 20 21 22 23 24 25 25 26 26 25 23 22 23 24 25 26 24 23 22 21 21 21
26 27 28 30 32 33 34 34 33 33 32 31 30 27 25 23 21 20 20 21 22 23 25 25 26 26 27 28 28 29 28 27 26 24 24 26 27 27 26 25 24 24 23
28 29 30 31 33 36 38 38 37 37 37 36 35 33 30 27 25 24 23 24 25 26 28 29 29 30 30 30 30 30 31 30 29 27 26 27 28 29 30 29 28 27 26
30 30 31 33 35 38 40 41 41 42 42 42 41 38 35 32 29 27 26 27 28 29 31 33 34 34 34 34 34 32 32 32 32 30 29 28 28 30 31 32 31 30 28
31 32 33 35 36 38 40 43 45 45 47 45 45 43 39 35 32 31 29 29 31 32 34 36 37 37 37 38 38 35 34 34 33 33 32 30 29 30 31 32 32 31 30
35 35 36 37 39 41 43 45 47 47 47 48 50 46 41 37 35 33 30 30 32 34 35 37 39 39 38 39 40 39 35 34 36 36 34 33 31 31 31 31 31 32 32
37 37 38 39 41 43 45 46 47 48 45 46 46 42 37 34 33 30 30 31 33 34 35 37 39 39 38 38 40 41 39 35 36 36 35 34 33 32 31 31 31 32 32
39 40 42 43 43 44 46 47 48 47 46 42 40 36 33 31 30 29 30 31 33 34 35 37 39 40 40 40 41 41 40 37 35 34 35 35 35 34 32 32 33 33 33
46 47 47 49 50 50 50 49 47 44 41 39 35 33 31 29 29 29 31 33 34 35 36 38 39 41 41 41 40 39 38 36 35 33 32 34 36 35 35 35 35 35 34
54 54 55 55 55 54 53 51 45 40 37 34 31 29 28 29 30 32 33 35 36 37 38 40 41 41 41 39 38 36 34 33 32 32 32 34 37 37 38 36 36 35 35
Wind_Direction
104 102 99 97 95 93 91 90 87 83 80 78 75 71 66 59 54 50 48 47 44 41 40 41 46 50 53 54 57 62 67 69 66 62 58 57 56 57 69 99 130 140 138
101 102 98 94 91 90 89 88 88 85 81 77 74 70 65 59 51 45 42 40 38 37 35 34 37 42 47 51 53 54 55 56 57 57 55 53 55 56 57 65 97 140 170
94 95 92 87 86 86 86 85 84 82 78 76 73 69 63 55 48 41 35 31 30 30 30 29 29 31 37 45 51 51 45 38 38 41 43 42 44 47 47 43 39 19 316
90 87 83 81 80 81 83 82 80 78 75 72 70 65 58 52 45 39 32 26 23 22 21 22 23 25 27 33 43 48 41 29 22 23 25 25 28 39 45 44 38 22 348
83 79 77 79 80 80 82 83 82 79 75 71 66 57 50 45 40 34 26 20 15 12 11 10 11 15 19 22 29 40 35 20 10 12 17 16 13 20 32 39 39 33 13
62 49 63 74 78 80 84 86 84 80 74 68 60 51 42 35 29 23 17 12 7 4 1 358 357 0 4 10 11 18 17 2 351 355 8 18 9 358 0 10 16 16 12
337 322 1 51 59 49 54 63 72 72 66 60 53 45 34 25 16 9 4 1 358 356 355 352 348 346 348 355 357 353 348 340 334 336 346 5 6 347 337 336 337 334 329
283 285 286 287 291 301 309 319 338 20 39 36 32 27 20 10 359 353 348 348 349 350 350 349 347 342 337 337 344 344 335 326 322 325 331 337 335 333 331 330 329 325 316
275 278 278 278 282 288 295 303 307 311 319 328 339 347 348 346 340 336 335 339 344 347 348 346 347 345 339 330 324 325 325 318 316 316 317 317 313 314 321 324 327 326 318
273 276 276 278 282 285 288 294 297 298 298 296 301 312 318 319 319 320 326 336 347 352 352 348 347 347 343 334 320 311 310 311 311 311 308 306 301 296 302 313 318 319 316
273 274 275 275 279 281 281 283 288 291 292 292 293 299 304 305 304 303 311 326 343 350 351 351 348 347 344 337 324 311 303 301 302 303 302 299 295 291 291 298 305 311 311
275 275 274 274 276 277 276 277 283 287 289 290 290 293 296 295 292 292 299 312 329 342 346 348 347 344 340 334 325 313 303 296 295 294 295 294 291 289 289 292 295 302 305
276 275 274 274 275 276 275 277 282 287 290 290 288 289 289 288 285 288 294 304 319 331 338 343 344 342 337 331 324 313 301 294 290 288 287 288 287 286 287 290 291 294 298
279 278 276 275 275 275 276 277 280 283 285 286 284 283 281 277 276 282 289 297 309 318 327 334 339 338 334 328 324 315 302 291 287 285 283 282 283 284 286 287 288 289 291
279 279 280 278 277 277 278 280 280 279 281 280 278 277 276 274 272 275 280 287 293 302 313 323 330 333 331 327 321 318 310 294 284 281 279 278 278 281 285 285 283 285 287
275 278 280 281 280 279 279 280 281 279 279 278 276 275 274 274 273 273 277 284 291 298 306 313 318 323 325 323 318 315 311 302 287 279 275 274 275 277 281 284 283 282 284
273 276 279 280 280 280 279 279 281 279 278 278 278 278 277 277 280 282 285 290 295 299 302 306 309 313 316 316 313 311 308 303 295 282 276 272 272 273 276 279 281 280 279
270 273 275 276 277 277 277 278 280 279 277 278 278 279 279 279 281 284 288 291 294 296 298 300 303 306 308 308 307 306 305 301 297 288 279 273 271 271 272 275 277 277 276
266 269 273 274 274 274 274 275 277 277 277 276 276 277 276 276 277 280 285 289 292 292 294 296 298 300 301 301 301 300 299 298 295 290 281 274 270 269 269 270 271 273 273
263 266 269 273 274 272 271 273 275 275 274 273 271 272 272 272 273 276 281 287 290 291 292 294 295 297 298 297 297 296 295 294 291 287 282 275 270 267 266 267 267 268 270
259 260 264 270 273 273 273 272 274 273 270 268 267 266 268 268 270 272 276 282 287 289 290 291 293 295 296 295 294 293 292 291 288 282 279 275 270 266 266 265 264 266 268
258 259 263 268 272 272 271 270 271 271 269 268 266 264 263 266 268 271 274 280 283 285 287 289 291 293 294 294 294 293 291 289 285 280 277 273 269 267 267 266 264 265 266
260 262 265 270 273 273 272 269 269 270 270 270 265 265 265 270 272 275 279 281 282 283 285 287 290 292 293 293 294 293 292 288 284 280 275 269 267 268 268 267 264 264 265
271 273 276 275 276 275 274 271 268 265 266 267 265 266 269 275 279 280 280 280 280 281 284 287 290 292 292 293 293 293 292 289 284 278 272 268 265 265 267 266 264 264 264
275 276 278 279 279 279 277 273 271 265 263 265 265 267 271 277 280 279 278 279 281 283 286 289 291 293 294 294 294 293 290 287 283 277 268 264 263 263 265 266 265 264 263
274 276 277 278 278 278 277 276 275 268 263 260 261 266 270 275 277 278 278 280 282 285 287 290 291 293 293 294 294 292 289 284 279 272 265 260 260 261 264 266 265 264 262
Height
5914 5915 5915 5915 5914 5914 5913 5913 5913 5913 5913 5913 5912 5912 5912 5912 5912 5911 5910 5910 5909 5909 5908 5908 5907 5905 5904 5903 5902 5901 5900 5899 5898 5898 5897 5896 5896 5895 5894 5894 5893 5893 5894
5916 5916 5916 5916 5916 5915 5915 5914 5914 5914 5914 5914 5914 5913 5913 5913 5913 5912 5911 5911 5910 5909 5909 5908 5908 5906 5905 5904 5903 5902 5901 5900 5899 5898 5898 5897 5896 5895 5895 5894 5894 5894 5894
5918 5918 5917 5917 5916 5916 5915 5915 5915 5915 5915 5915 5915 5915 5914 5914 5913 5913 5912 5911 5911 5910 5909 5908 5908 5907 5906 5905 5903 5903 5902 5901 5900 5899 5898 5897 5896 5895 5895 5894 5894 5894 5894
5919 5919 5918 5918 5917 5917 5916 5916 5915 5915 5916 5915 5915 5915 5915 5914 5914 5913 5912 5912 5911 5910 5909 5908 5907 5906 5905 5905 5904 5903 5902 5901 5900 5899 5898 5897 5896 5895 5894 5894 5893 5893 5893
5921 5921 5920 5919 5919 5918 5917 5916 5916 5916 5916 5916 5915 5915 5915 5914 5914 5913 5913 5912 5911 5910 5909 5908 5907 5906 5905 5904 5903 5902 5901 5900 5899 5899 5898 5897 5896 5895 5894 5894 5893 5893 5893
5922 5922 5921 5920 5919 5919 5918 5917 5916 5916 5916 5916 5915 5915 5915 5915 5914 5914 5913 5912 5911 5909 5908 5907 5906 5905 5904 5903 5902 5902 5901 5900 5899 5898 5897 5897 5896 5895 5894 5893 5893 5892 5892
5923 5923 5922 5921 5920 5919 5918 5917 5916 5916 5915 5915 5915 5915 5915 5914 5914 5913 5913 5912 5910 5909 5908 5907 5905 5904 5903 5902 5902 5901 5900 5899 5898 5897 5896 5896 5895 5894 5894 5893 5892 5892 5891
5923 5922 5921 5920 5919 5919 5918 5917 5916 5916 5915 5915 5915 5915 5914 5914 5913 5912 5912 5911 5910 5909 5907 5906 5904 5903 5902 5902 5901 5901 5900 5899 5897 5896 5895 5895 5894 5893 5893 5892 5891 5890 5890
5921 5921 5920 5919 5918 5918 5917 5917 5916 5916 5915 5915 5915 5915 5914 5913 5912 5912 5911 5910 5909 5908 5906 5905 5903 5902 5901 5900 5900 5899 5899 5898 5897 5895 5894 5894 5893 5892 5891 5891 5890 5889 5888
5919 5919 5918 5918 5917 5917 5916 5916 5916 5915 5915 5915 5914 5914 5914 5913 5912 5911 5910 5909 5908 5907 5905 5904 5902 5900 5899 5898 5898 5897 5897 5896 5895 5894 5893 5892 5892 5891 5890 5890 5889 5888 5886
5917 5917 5916 5916 5916 5915 5915 5914 5914 5914 5914 5914 5913 5913 5912 5911 5910 5909 5909 5908 5907 5905 5904 5902 5900 5898 5897 5896 5895 5895 5895 5894 5893 5892 5892 5891 5890 5889 5889 5888 5887 5886 5884
5915 5915 5914 5914 5914 5913 5913 5913 5912 5912 5912 5911 5911 5910 5909 5909 5908 5907 5907 5906 5905 5904 5902 5900 5899 5896 5895 5894 5893 5892 5892 5892 5891 5890 5889 5889 5888 5887 5886 5886 5885 5884 5882
5913 5912 5912 5912 5911 5911 5911 5910 5910 5910 5909 5909 5908 5907 5907 5906 5905 5905 5904 5904 5902 5901 5900 5898 5896 5894 5893 5891 5890 5889 5889 5888 5888 5887 5886 5886 5885 5884 5884 5883 5882 5881 5880
5910 5910 5909 5909 5909 5908 5908 5908 5907 5907 5907 5906 5905 5904 5903 5903 5902 5902 5902 5901 5900 5899 5897 5896 5894 5892 5890 5888 5887 5886 5885 5884 5884 5883 5883 5883 5882 5881 5881 5880 5879 5879 5877
5907 5907 5907 5906 5906 5905 5905 5904 5904 5903 5903 5902 5902 5901 5900 5899 5899 5899 5898 5897 5897 5896 5894 5893 5891 5889 5887 5885 5883 5882 5880 5879 5879 5879 5879 5878 5878 5877 5877 5877 5876 5875 5874
5904 5904 5903 5903 5902 5902 5901 5900 5899 5898 5898 5897 5897 5897 5896 5895 5895 5894 5894 5893 5892 5891 5890 5889 5887 5885 5883 5881 5879 5878 5876 5875 5874 5873 5873 5873 5873 5873 5872 5872 5872 5871 5870
5900 5900 5899 5899 5898 5897 5896 5895 5894 5893 5892 5891 5891 5891 5890 5890 5890 5889 5888 5887 5887 5886 5885 5884 5882 5881 5878 5877 5875 5873 5871 5870 5869 5868 5867 5867 5867 5867 5867 5867 5866 5866 5866
5894 5894 5894 5893 5893 5891 5890 5889 5888 5887 5886 5885 5884 5884 5884 5884 5883 5883 5882 5881 5881 5880 5879 5878 5876 5875 5873 5871 5870 5868 5866 5864 5863 5862 5861 5861 5861 5861 5861 5861 5861 5861 5861
5888 5887 5887 5887 5886 5884 5883 5882 5882 5880 5879 5878 5877 5876 5876 5877 5876 5876 5875 5874 5874 5873 5872 5871 5869 5868 5867 5865 5864 5862 5860 5858 5857 5856 5855 5854 5854 5854 5854 5855 5855 5855 5855
5880 5880 5879 5878 5877 5876 5874 5874 5873 5872 5871 5869 5868 5868 5868 5868 5868 5868 5867 5867 5866 5865 5864 5862 5862 5861 5859 5857 5857 5856 5854 5851 5850 5848 5848 5847 5847 5847 5847 5848 5848 5848 5849
5872 5871 5871 5869 5868 5867 5866 5865 5863 5862 5861 5859 5858 5857 5858 5859 5859 5859 5859 5858 5858 5857 5856 5854 5853 5852 5851 5848 5848 5848 5847 5844 5842 5840 5840 5840 5839 5839 5840 5840 5840 5841 5842
5862 5862 5861 5860 5859 5857 5856 5854 5853 5850 5849 5849 5848 5847 5848 5849 5849 5849 5850 5850 5849 5849 5848 5846 5844 5843 5842 5839 5837 5837 5838 5838 5834 5832 5832 5831 5831 5831 5832 5832 5832 5833 5834
5849 5850 5850 5850 5849 5847 5845 5843 5842 5839 5837 5836 5836 5837 5838 5839 5839 5840 5841 5841 5841 5841 5840 5838 5836 5834 5833 5831 5828 5826 5827 5828 5825 5824 5823 5823 5823 5823 5823 5824 5824 5825 5826
5839 5839 5839 5839 5837 5836 5834 5830 5828 5827 5826 5826 5826 5827 5828 5829 5831 5832 5832 5833 5832 5832 5831 5829 5827 5825 5824 5822 5819 5816 5816 5816 5816 5815 5814 5814 5814 5815 5815 5816 5816 5817 5817
5831 5831 5829 5829 5827 5826 5823 5820 5816 5813 5813 5815 5817 5818 5820 5821 5822 5823 5824 5824 5823 5823 5821 5820 5818 5816 5813 5812 5810 5807 5805 5804 5804 5804 5805 5805 5805 5806 5807 5807 5808 5808 5808
5821 5820 5819 5818 5816 5814 5811 5809 5806 5804 5804 5806 5808 5809 5811 5813 5814 5815 5815 5815 5814 5814 5812 5811 5809 5806 5804 5801 5799 5797 5796 5795 5794 5794 5795 5795 5795 5796 5797 5798 5798 5799 5799